date,time,DOY,Ta_1_1_1,Pa_1_1_1,RH_1_1_1,LWin_1_1_1,LWout_1_1_1,SWin_1_1_1,SWout_1_1_1,PPFD_1_1_1,MWS_1_1_1,WD_1_1_1,SWC_1_1_1,Ts_1_1_1
[yyyy-mm-dd],[HH:MM],[ddd.ddd],[K],[Pa],[%],[W+1m-2],[W+1m-2],[W+1m-2],[W+1m-2],[µmol+1m-2s-1],[m+1s-1],[deg],[m+3m-3],[K]
2018-05-11,00:30,131.020,278.73100000000011,95071.399999999994,28.952999999999992,343.01100000000014,286.26433333333335,7.7076666666666664,58.133666666666677,113.13333333333331,4.4800000000000004,242.57833333333335,0.33000000000000002,279.38833333333338
2018-05-11,01:00,131.041,278.34000000000003,95099.300000000003,29.668333333333333,339.88000000000000,290.81900000000002,3.1056666666666670,18.661666666666665,38.652999999999992,4.0500000000000007,257.97733333333332,0.33000000000000002,279.27400000000006
2018-05-11,01:30,131.062,277.99666666666667,95122.533333333340,31.042333333333335,337.28099999999995,290.36733333333336,1.0363333333333331,0.23999999999999996,6.5386666666666686,3.3699999999999997,277.52133333333330,0.33000000000000002,279.14133333333331
2018-05-11,02:00,131.083,277.68466666666677,95159.233333333337,32.653333333333322,335.24666666666673,287.68133333333333,0.83966666666666645,-2.9596666666666667,0.26866666666666666,2.8199999999999998,250.69966666666667,0.33000000000000002,279.01633333333336
2018-05-11,02:30,131.104,277.35900000000004,95189.000000000000,34.558666666666667,333.22000000000003,286.67366666666658,0.90833333333333310,-3.1913333333333331,-1.33333333333333307E-003,2.2966666666666664,116.46766666666667,0.33000000000000002,278.88500000000005
2018-05-11,03:00,131.124,277.05800000000005,95172.800000000003,36.515666666666661,331.85200000000015,290.57099999999997,0.98300000000000021,-2.7743333333333329,-5.00000000000000010E-003,2.1166666666666667,39.122999999999998,0.33000000000000002,278.76000000000005
2018-05-11,03:30,131.145,276.82533333333339,95168.000000000000,36.881999999999998,330.19800000000004,289.44666666666666,0.91233333333333333,-2.7643333333333335,4.00000000000000008E-003,2.2799999999999998,40.666666666666657,0.33000000000000002,278.64233333333334
2018-05-11,04:00,131.166,276.57400000000001,95173.199999999997,39.981000000000002,327.32233333333335,277.46633333333335,1.0710000000000000,-3.5903333333333332,3.33333333333333311E-003,1.6766666666666661,35.288666666666671,0.33000000000000002,278.52466666666675
2018-05-11,04:30,131.187,276.22600000000006,95181.033333333340,42.270333333333340,323.30766666666671,256.87799999999999,1.4143333333333330,-4.6986666666666670,-4.00000000000000008E-003,1.2600000000000000,48.333666666666673,0.33000000000000002,278.40499999999992
2018-05-11,05:00,131.208,275.77133333333330,95196.333333333328,40.680666666666667,319.42766666666671,245.40033333333335,1.6773333333333331,-5.2530000000000001,-5.66666666666666707E-003,1.5300000000000002,55.611333333333327,0.33000000000000002,278.28466666666674
2018-05-11,05:30,131.229,275.59866666666665,95227.666666666672,41.587333333333341,318.82766666666669,254.07499999999996,1.4629999999999996,-4.4633333333333320,-1.00000000000000002E-003,2.0666666666666669,49.522333333333329,0.33000000000000002,278.15100000000001
2018-05-11,06:00,131.249,275.32433333333330,95261.333333333328,42.017333333333340,316.87200000000013,240.64833333333328,1.2600000000000000,-5.1390000000000002,-3.66666666666666703E-003,2.4399999999999995,80.243999999999986,0.33000000000000002,278.02633333333341
2018-05-11,06:30,131.270,274.95566666666667,95244.800000000003,45.519333333333336,315.08766666666673,239.85866666666666,1.0236666666666667,-5.1656666666666657,-6.00000000000000012E-003,2.6000000000000001,83.922666666666657,0.33000000000000002,277.88899999999995
2018-05-11,07:00,131.291,274.54033333333342,95253.566666666666,46.347666666666669,313.34699999999998,238.42366666666663,1.2709999999999999,-4.9856666666666678,2.00000000000000004E-003,2.4733333333333345,85.221333333333320,0.33000000000000002,277.75000000000000
2018-05-11,07:30,131.312,274.44299999999998,95253.399999999994,47.376666666666672,313.40066666666655,238.81533333333329,1.0436666666666670,-4.8309999999999995,-6.33333333333333318E-003,3.0166666666666666,88.655999999999992,0.33000000000000002,277.61433333333332
2018-05-11,08:00,131.333,273.98366666666669,95261.333333333328,48.496666666666677,311.93300000000005,238.82766666666663,1.0906666666666669,-4.7393333333333327,8.00000000000000017E-003,2.7900000000000000,93.144666666666652,0.33000000000000002,277.48533333333324
2018-05-11,08:30,131.354,273.95100000000008,95235.533333333340,46.825666666666670,311.04000000000002,239.10466666666676,1.1533333333333331,-4.4740000000000002,-3.00000000000000006E-003,2.7333333333333329,90.789333333333346,0.33000000000000002,277.36366666666669
2018-05-11,09:00,131.374,274.02433333333335,95228.333333333328,48.193333333333342,311.17233333333331,239.39100000000008,1.0173333333333332,-4.4626666666666681,-3.00000000000000006E-003,3.1333333333333333,95.500333333333330,0.33000000000000002,277.25166666666672
2018-05-11,09:30,131.395,273.74533333333335,95229.466666666660,50.480333333333334,310.74566666666669,242.79500000000002,0.85166666666666635,-4.2426666666666657,3.33333333333333355E-003,3.3000000000000003,102.55566666666667,0.33000000000000002,277.15466666666669
2018-05-11,10:00,131.416,272.97500000000002,95222.866666666669,59.507666666666680,309.33299999999997,246.69200000000001,0.81866666666666665,-3.9990000000000010,3.06666666666666615E-002,3.0766666666666671,107.44399999999999,0.33000000000000002,277.05633333333338
2018-05-11,10:30,131.437,272.68466666666666,95183.899999999994,61.469666666666640,308.44500000000005,246.10733333333332,1.5176666666666665,-0.89633333333333298,2.3633333333333337,2.9733333333333340,102.40033333333334,0.33000000000000002,276.96700000000004
2018-05-11,11:00,131.458,272.93900000000014,95199.966666666660,56.893999999999998,309.98800000000000,248.95633333333336,4.7459999999999996,18.513666666666666,27.725333333333332,3.0233333333333339,105.48833333333333,0.33000000000000002,276.89433333333335
2018-05-11,11:30,131.479,272.85666666666668,95217.833333333328,59.784666666666659,311.81533333333334,249.95733333333331,8.9050000000000011,58.958333333333336,102.18199999999997,2.5200000000000005,107.84500000000001,0.33000000000000002,276.81966666666682
2018-05-11,12:00,131.499,273.16233333333327,95235.566666666666,59.296666666666674,315.44099999999997,251.14833333333337,15.977000000000000,115.43266666666666,201.23333333333332,2.6766666666666672,103.03333333333335,0.33000000000000002,276.75899999999996
2018-05-11,12:30,131.520,273.97866666666664,95243.966666666660,58.309333333333335,322.23733333333325,256.25833333333327,28.154666666666671,214.07266666666661,373.17133333333328,2.0933333333333333,115.35633333333334,0.33000000000000002,276.71733333333339
2018-05-11,13:00,131.541,274.86566666666670,95263.566666666666,52.257666666666672,328.30333333333334,263.51200000000006,33.548000000000009,269.64399999999995,483.90633333333335,2.8366666666666669,104.23300000000000,0.33000000000000002,276.68933333333337
2018-05-11,13:30,131.562,275.52066666666667,95281.399999999994,44.073000000000000,333.18666666666672,267.36266666666666,42.290333333333329,345.95499999999993,628.96266666666668,3.7700000000000000,111.36700000000000,0.33000000000000002,276.67833333333328
2018-05-11,14:00,131.583,275.93866666666673,95304.533333333340,41.264999999999993,336.63100000000003,277.63533333333328,40.751666666666665,341.70733333333339,635.81600000000003,3.9566666666666666,105.91200000000001,0.33000000000000002,276.68133333333333
2018-05-11,14:30,131.604,276.35800000000012,95294.899999999994,38.054000000000002,339.53833333333330,281.60966666666661,41.487999999999992,352.36466666666672,664.84833333333336,4.0533333333333328,110.61133333333333,0.33000000000000002,276.70133333333331
2018-05-11,15:00,131.624,276.63000000000000,95297.633333333331,35.967000000000006,342.88533333333339,282.10899999999998,48.734333333333339,415.68066666666675,788.71600000000001,3.8466666666666662,101.85566666666665,0.33000000000000002,276.73933333333332
2018-05-11,15:30,131.645,277.13199999999995,95283.133333333331,34.609666666666676,347.83900000000011,282.70200000000000,59.801999999999992,508.99433333333349,963.12900000000002,4.0499999999999998,88.723333333333343,0.33000000000000002,276.80033333333341
2018-05-11,16:00,131.666,277.73866666666657,95237.033333333340,32.186999999999998,353.45866666666660,281.36233333333331,70.994000000000014,606.27133333333336,1151.7880000000000,4.1466666666666665,95.856000000000009,0.33000000000000002,276.89399999999995
2018-05-11,16:30,131.687,278.63366666666667,95203.466666666660,30.081666666666660,363.81599999999997,279.60800000000000,92.200333333333319,786.09766666666667,1503.6973333333333,3.4466666666666659,99.055000000000007,0.33000000000000002,277.03166666666675
2018-05-11,17:00,131.708,279.62966666666665,95167.100000000006,27.654666666666667,372.50400000000002,284.87066666666664,102.24899999999998,884.57200000000000,1704.7693333333332,3.5266666666666668,107.66666666666667,0.33000000000000002,277.25133333333343
2018-05-11,17:30,131.729,280.12200000000001,95134.433333333334,27.007999999999999,376.57700000000006,289.36333333333334,100.31966666666671,878.35100000000000,1701.7313333333332,2.9633333333333334,90.133333333333340,0.33000000000000002,277.43700000000001
2018-05-11,18:00,131.749,280.87700000000007,95121.199999999997,25.381666666666661,381.09600000000006,290.99066666666670,102.99766666666666,908.47366666666665,1767.7799999999997,3.2566666666666664,106.82266666666668,0.33000000000000002,277.58000000000004
2018-05-11,18:30,131.770,281.46333333333331,95100.000000000000,24.052666666666664,384.02933333333334,292.54233333333349,100.20266666666667,891.11833333333323,1744.2943333333330,3.3999999999999999,106.07766666666667,0.33000000000000002,277.70333333333332
2018-05-11,19:00,131.791,282.29833333333329,95084.133333333331,22.532333333333334,388.03333333333319,294.05766666666671,99.170333333333375,892.86800000000005,1750.0663333333334,3.6966666666666663,112.83300000000000,0.33000000000000002,277.81966666666665
2018-05-11,19:30,131.812,282.96933333333328,95089.533333333340,22.349666666666668,390.02266666666674,297.47600000000000,93.092333333333315,846.74766666666676,1671.8000000000000,2.7333333333333338,104.14433333333335,0.33000000000000002,277.92966666666666
2018-05-11,20:00,131.833,283.29566666666670,95081.233333333337,22.664000000000001,390.97733333333338,301.44333333333338,86.322999999999993,787.55066666666653,1556.5003333333336,2.5933333333333333,87.733666666666679,0.33000000000000002,278.06966666666659
2018-05-11,20:30,131.854,283.83133333333336,95060.133333333331,23.055666666666671,391.80799999999994,300.52600000000001,84.432333333333332,765.15433333333317,1513.9540000000002,2.8800000000000008,89.611666666666693,0.33000000000000002,278.28033333333337
2018-05-11,21:00,131.874,284.21900000000005,95025.566666666666,22.514999999999997,391.25433333333325,304.69833333333338,73.915333333333322,674.21633333333330,1344.6883333333330,2.3733333333333331,84.398999999999987,0.33000000000000002,278.53333333333336
2018-05-11,21:30,131.895,284.61966666666672,94987.733333333337,21.510666666666658,390.90366666666654,300.38000000000011,67.679333333333318,613.92300000000000,1221.5796666666670,2.5133333333333336,97.909999999999997,0.33000000000000002,278.78966666666662
2018-05-11,22:00,131.916,284.71533333333338,94979.000000000000,20.786666666666665,389.36633333333339,302.46900000000011,59.770666666666678,534.18999999999994,1059.7800000000000,2.3766666666666665,84.177333333333337,0.33000000000000002,279.02766666666668
2018-05-11,22:30,131.937,284.93366666666674,94974.666666666672,21.131666666666664,384.38533333333345,308.26233333333329,38.523999999999994,341.03766666666667,678.05666666666673,1.7800000000000000,100.24500000000002,0.33000000000000002,279.23100000000005
2018-05-11,23:00,131.958,284.80133333333345,94961.566666666666,22.022666666666669,379.03766666666678,310.58700000000005,24.579333333333331,214.14033333333330,428.17266666666666,1.7233333333333336,96.933999999999997,0.33000000000000002,279.37933333333336
2018-05-11,23:30,131.979,284.65799999999996,94931.233333333337,23.099000000000004,375.56466666666677,310.56433333333337,18.366000000000003,154.21166666666664,307.73366666666669,1.5166666666666666,97.843666666666650,0.33000000000000002,279.46666666666664
2018-05-12,00:00,132.000,284.41199999999998,94909.866666666669,23.790666666666670,371.39433333333335,312.56200000000007,11.192666666666666,88.532666666666685,177.65566666666660,1.6299999999999999,66.533000000000001,0.33000000000000002,279.50666666666683
